timestamp,surface_pressure_avg,surface_temp_avg,battery_voltage,lat,long
2021-01-18 00:09:01+00:00,254.1997,3.0,12.65,47.84626,-54.09684
2021-01-18 00:19:01+00:00,258.2231,3.0,12.65,47.84626,-54.09684
2021-01-18 00:29:01+00:00,270.8064,3.0,12.65,47.84626,-54.09684
2021-01-18 00:39:01+00:00,275.0147,3.0,12.65,47.84626,-54.09684
2021-01-18 00:49:01+00:00,277.1314,3.0,12.65,47.84626,-54.09684
2021-01-18 00:59:01+00:00,286.8364,3.0,12.65,47.84626,-54.09684
2021-01-18 01:09:01+00:00,301.4947,3.0,12.65,47.84626,-54.09684
2021-01-18 01:19:01+00:00,303.478,3.0,12.65,47.84626,-54.09684
2021-01-18 01:29:01+00:00,304.683,3.0,12.65,47.84626,-54.09684
2021-01-18 01:39:01+00:00,312.8848,3.0,12.65,47.84626,-54.09684
2021-01-18 01:49:01+00:00,318.9647,3.0,12.65,47.84626,-54.09684
2021-01-18 01:59:01+00:00,321.9696,3.02,12.65,47.84626,-54.09684
2021-01-18 02:09:01+00:00,326.8146,3.0,12.65,47.84626,-54.09684
2021-01-18 02:19:01+00:00,336.9430000000001,3.0,12.65,47.84626,-54.09684
2021-01-18 02:29:01+00:00,338.6396,3.0,12.65,47.84626,-54.09684
2021-01-18 02:39:01+00:00,337.913,3.0,12.65,47.84626,-54.09684
2021-01-18 02:49:01+00:00,337.6246,3.0,12.65,47.84626,-54.09684
2021-01-18 02:59:01+00:00,342.9062,3.0,12.65,47.84626,-54.09684
2021-01-18 03:09:01+00:00,349.958,3.0,12.65,47.84626,-54.09684
2021-01-18 03:19:01+00:00,345.7812,3.0,12.65,47.84626,-54.09684
2021-01-18 03:29:01+00:00,341.3863,3.0,12.65,47.84626,-54.09684
2021-01-18 03:39:01+00:00,341.9079,2.99,12.65,47.84626,-54.09684
2021-01-18 03:49:01+00:00,339.3664,2.98,12.65,47.84626,-54.09684
2021-01-18 03:59:01+00:00,333.17800000000005,2.98,12.65,47.84626,-54.09684
2021-01-18 04:09:01+00:00,325.713,2.99,12.65,47.84626,-54.09684
2021-01-18 04:19:01+00:00,327.1296,2.98,12.65,47.84626,-54.09684
2021-01-18 04:29:01+00:00,321.5646,2.99,12.65,47.84626,-54.09684
2021-01-18 04:39:01+00:00,316.238,3.0,12.65,47.84626,-54.09684
2021-01-18 04:49:01+00:00,315.8046,3.0,12.65,47.84626,-54.09684
2021-01-18 04:59:01+00:00,314.1429,3.0,12.65,47.84626,-54.09684
2021-01-18 05:09:01+00:00,305.703,3.0,12.65,47.84626,-54.09684
2021-01-18 05:19:01+00:00,298.0663,2.97,12.65,47.84626,-54.09684
2021-01-18 05:29:01+00:00,302.2381,2.98,12.65,47.84626,-54.09684
2021-01-18 05:39:01+00:00,293.3214,3.0,12.65,47.84626,-54.09684
2021-01-18 05:49:01+00:00,277.1531,2.99,12.65,47.84626,-54.09684
2021-01-18 05:59:01+00:00,278.5614,2.95,12.65,47.84626,-54.09684
2021-01-18 06:09:01+00:00,286.4863,2.97,12.65,47.84626,-54.09684
2021-01-18 06:19:01+00:00,270.6331,2.96,12.57,47.84626,-54.09684
2021-01-18 06:29:01+00:00,251.4031,2.9,12.57,47.84626,-54.09684
2021-01-18 06:39:01+00:00,256.39799999999997,2.9,12.57,47.84626,-54.09684
2021-01-18 06:49:01+00:00,257.6197,2.9,12.57,47.84626,-54.09684
2021-01-18 06:59:01+00:00,238.78799999999998,2.9,12.57,47.84626,-54.09684
2021-01-18 07:09:01+00:00,233.3431,2.9,12.57,47.84626,-54.09684
2021-01-18 07:19:01+00:00,242.3398,2.9,12.57,47.84626,-54.09684
2021-01-18 07:29:01+00:00,235.4131,2.9,12.57,47.84626,-54.09684
2021-01-18 07:39:01+00:00,223.6364,2.91,12.57,47.84626,-54.09684
2021-01-18 07:49:01+00:00,221.7331,2.91,12.57,47.84626,-54.09684
2021-01-18 07:59:01+00:00,216.3947,2.9,12.57,47.84626,-54.09684
2021-01-18 08:09:01+00:00,208.8481,2.9,12.57,47.84626,-54.09684
2021-01-18 08:19:01+00:00,207.8515,2.9,12.57,47.84626,-54.09684
2021-01-18 08:29:01+00:00,205.5064,2.9,12.57,47.84626,-54.09684
2021-01-18 08:39:01+00:00,198.7398,2.9,12.57,47.84626,-54.09684
2021-01-18 08:49:01+00:00,195.8364,2.9,12.57,47.84626,-54.09684
2021-01-18 08:59:01+00:00,197.6365,2.9,12.57,47.84626,-54.09684
2021-01-18 09:09:01+00:00,193.7165,2.9,12.57,47.84626,-54.09684
2021-01-18 09:19:01+00:00,193.9232,2.87,12.57,47.84626,-54.09684
2021-01-18 09:29:01+00:00,200.6981,2.85,12.57,47.84626,-54.09684
2021-01-18 09:39:01+00:00,200.7781,2.86,12.57,47.84626,-54.09684
2021-01-18 09:49:01+00:00,201.3481,2.89,12.57,47.84626,-54.09684
2021-01-18 09:59:01+00:00,209.0381,2.9,12.57,47.84626,-54.09684
2021-01-18 10:09:01+00:00,218.7031,2.9,12.57,47.84626,-54.09684
2021-01-18 10:19:01+00:00,221.1948,2.9,12.57,47.84626,-54.09684
2021-01-18 10:29:01+00:00,220.1015,2.9,12.57,47.84626,-54.09684
2021-01-18 10:39:01+00:00,227.3531,2.89,12.57,47.84626,-54.09684
2021-01-18 10:49:01+00:00,235.8248,2.85,12.57,47.84626,-54.09684
2021-01-18 10:59:01+00:00,237.4797,2.89,12.57,47.84626,-54.09684
2021-01-18 11:09:01+00:00,243.1881,2.9,12.57,47.84626,-54.09684
2021-01-18 11:19:01+00:00,251.4281,2.9,12.57,47.84626,-54.09684
2021-01-18 11:29:01+00:00,254.2431,2.9,12.57,47.84626,-54.09684
2021-01-18 11:39:01+00:00,258.2281,2.9,12.57,47.84626,-54.09684
2021-01-18 11:49:01+00:00,261.2781,2.93,12.57,47.84626,-54.09684
2021-01-18 11:59:01+00:00,261.8114,2.96,12.57,47.84626,-54.09684
2021-01-18 12:09:01+00:00,261.5181,2.98,12.57,47.84626,-54.09684
2021-01-18 12:19:01+00:00,269.5548,3.0,12.57,47.84626,-54.09684
2021-01-18 12:29:01+00:00,278.6097,2.99,12.57,47.84626,-54.09684
2021-01-18 12:39:01+00:00,280.4581,2.9,12.57,47.84626,-54.09684
2021-01-18 12:49:01+00:00,278.1447,2.9,12.57,47.84626,-54.09684
2021-01-18 12:59:01+00:00,284.2297,2.9,12.57,47.84626,-54.09684
2021-01-18 13:09:01+00:00,295.27299999999997,2.9,12.57,47.84626,-54.09684
2021-01-18 13:19:01+00:00,301.8063,2.9,12.73,47.84626,-54.09684
2021-01-18 13:29:01+00:00,307.113,2.9,12.73,47.84626,-54.09684
2021-01-18 13:39:01+00:00,319.1447,2.9,12.73,47.84626,-54.09684
2021-01-18 13:49:01+00:00,325.5864,2.94,12.73,47.84626,-54.09684
2021-01-18 13:59:01+00:00,329.733,3.0,12.73,47.84626,-54.09684
2021-01-18 14:09:01+00:00,338.8446,3.0,12.73,47.84626,-54.09684
2021-01-18 14:19:01+00:00,345.1346,3.0,13.29,47.84626,-54.09684
2021-01-18 14:29:01+00:00,347.3397,3.0,13.29,47.84626,-54.09684
2021-01-18 14:39:01+00:00,351.0145,3.05,13.29,47.84626,-54.09684
2021-01-18 14:49:01+00:00,355.7812,3.07,13.29,47.84626,-54.09684
2021-01-18 14:59:01+00:00,355.2563,3.08,13.29,47.84626,-54.09684
2021-01-18 15:09:01+00:00,355.5162,3.1,13.29,47.84626,-54.09684
2021-01-18 15:19:01+00:00,357.0314,3.1,13.21,47.84626,-54.09684
2021-01-18 15:29:01+00:00,357.0796,3.1,13.21,47.84626,-54.09684
2021-01-18 15:39:01+00:00,356.9246,3.1,13.21,47.84626,-54.09684
2021-01-18 15:49:01+00:00,356.9962,3.1,13.21,47.84626,-54.09684
2021-01-18 15:59:01+00:00,355.3263,3.1,13.21,47.84626,-54.09684
2021-01-18 16:09:01+00:00,348.6447,3.1,13.21,47.84626,-54.09684
2021-01-18 16:19:01+00:00,344.8229,3.1,13.13,47.84626,-54.09684
2021-01-18 16:29:01+00:00,344.778,3.1,13.13,47.84626,-54.09684
2021-01-18 16:39:01+00:00,343.0096,3.1,13.13,47.84626,-54.09684
2021-01-18 16:49:01+00:00,333.608,3.1,13.13,47.84626,-54.09684
2021-01-18 16:59:01+00:00,330.6929,3.1,13.13,47.84626,-54.09684
2021-01-18 17:09:01+00:00,329.8246,3.1,13.13,47.84626,-54.09684
2021-01-18 17:19:01+00:00,326.2629,3.1,12.97,47.84626,-54.09684
2021-01-18 17:29:01+00:00,322.7363,3.1,12.97,47.84626,-54.09684
2021-01-18 17:39:01+00:00,317.3313,3.1,12.97,47.84626,-54.09684
2021-01-18 17:49:01+00:00,309.3297,3.1,12.97,47.84626,-54.09684
2021-01-18 17:59:01+00:00,300.5247,3.1,12.97,47.84626,-54.09684
2021-01-18 18:09:01+00:00,298.5314,3.1,12.97,47.84626,-54.09684
2021-01-18 18:19:01+00:00,287.2747,3.1,13.05,47.84626,-54.09684
2021-01-18 18:29:01+00:00,276.738,3.1,13.05,47.84626,-54.09684
2021-01-18 18:39:01+00:00,272.5981,3.1,13.05,47.84626,-54.09684
2021-01-18 18:49:01+00:00,271.3264,3.1,13.05,47.84626,-54.09684
2021-01-18 18:59:01+00:00,257.0448,3.1,13.05,47.84626,-54.09684
2021-01-18 19:09:01+00:00,246.0681,3.1,13.05,47.84626,-54.09684
2021-01-18 19:19:01+00:00,245.1797,3.1,12.89,47.84626,-54.09684
2021-01-18 19:29:01+00:00,238.4581,3.12,12.89,47.84626,-54.09684
2021-01-18 19:39:01+00:00,225.7448,3.15,12.89,47.84626,-54.09684
2021-01-18 19:49:01+00:00,221.4431,3.18,12.89,47.84626,-54.09684
2021-01-18 19:59:01+00:00,223.7731,3.17,12.89,47.84626,-54.09684
2021-01-18 20:09:01+00:00,213.7148,3.17,12.89,47.84626,-54.09684
2021-01-18 20:19:01+00:00,201.0565,3.19,12.81,47.84626,-54.09684
2021-01-18 20:29:01+00:00,200.7515,3.19,12.81,47.84626,-54.09684
2021-01-18 20:39:01+00:00,203.3665,3.19,12.81,47.84626,-54.09684
2021-01-18 20:49:01+00:00,196.6315,3.19,12.81,47.84626,-54.09684
2021-01-18 20:59:01+00:00,194.2632,3.2,12.81,47.84626,-54.09684
2021-01-18 21:09:01+00:00,197.7298,3.2,12.81,47.84626,-54.09684
2021-01-18 21:19:01+00:00,199.6065,3.2,12.73,47.84626,-54.09684
2021-01-18 21:29:01+00:00,206.4098,3.2,12.73,47.84626,-54.09684
2021-01-18 21:39:01+00:00,214.1998,3.2,12.73,47.84626,-54.09684
2021-01-18 21:49:01+00:00,213.5864,3.2,12.73,47.84626,-54.09684
2021-01-18 21:59:01+00:00,208.9748,3.2,12.73,47.84626,-54.09684
2021-01-18 22:09:01+00:00,212.6181,3.2,12.73,47.84626,-54.09684
2021-01-18 22:19:01+00:00,218.5998,3.2,12.73,47.84626,-54.09684
2021-01-18 22:29:01+00:00,217.3981,3.2,12.73,47.84626,-54.09684
2021-01-18 22:39:01+00:00,221.7665,3.2,12.73,47.84626,-54.09684
2021-01-18 22:49:01+00:00,233.9798,3.2,12.73,47.84626,-54.09684
2021-01-18 22:59:01+00:00,241.9297,3.2,12.73,47.84626,-54.09684
2021-01-18 23:09:01+00:00,245.6214,3.2,12.73,47.84626,-54.09684
2021-01-18 23:19:01+00:00,252.5364,3.2,12.73,47.84626,-54.09684
2021-01-18 23:29:01+00:00,263.8214,3.2,12.73,47.84626,-54.09684
2021-01-18 23:39:01+00:00,266.2997,3.2,12.73,47.84626,-54.09684
2021-01-18 23:49:01+00:00,261.6547,3.2,12.73,47.84626,-54.09684
2021-01-18 23:59:01+00:00,260.1581,3.2,12.73,47.84626,-54.09684
